[[{"header":{"parameterUnit":"m.s-1","parameterCategory":1,"la1":30.2991,"la2":30.254,"lo1":-89.0895,"lo2":-89.0444,"dy":0.0017,"dx":0.0017,"nx":28,"ny":28,"refTime":"2024-05-06T03:00:00:Z","depth":0,"parameterNumber":2,"parameterNumberName":"U-component_of_WINDS"},"data":[0,0,0,0,0,0,0,0,0,0,0,0,0,0,0,0,0,0,0,0,0,0,0,0,0,0,0,0,0,0,0,0,0,0,0,0,0,0,0,0,0,0,0,0,0,0,0,0,0,0,0,0,0,0,0,0,0,0,-0.3488,-0.3488,0,-0.3485,-0.3485,-0.3485,-0.3502,-0.3502,-0.3503,-0.3503,-0.35,-0.3499,-0.3499,0,0,0,0,0,0,0,0,0,0,0,0,0,-0.3509,-0.3508,-0.3488,-0.3488,-0.3488,-0.3485,-0.3485,-0.3485,-0.3502,-0.3502,-0.3503,-0.3504,-0.35,-0.3499,-0.3499,0,0,0,0,0,0,0,0,0,0,0,0,0,-0.3502,-0.3508,-0.3488,-0.3496,-0.3497,-0.3485,-0.3485,-0.3485,-0.3502,-0.3502,-0.3503,-0.3504,-0.35,-0.3499,-0.3499,-0.3479,0,0,-0.3496,-0.3496,0,0,0,0,0,0,0,0,-0.3503,-0.3501,-0.3495,-0.3496,-0.3496,-0.3495,-0.3491,-0.3483,-0.3502,-0.35,-0.3503,-0.3504,-0.3497,-0.3497,-0.3495,-0.3479,-0.3479,-0.3496,-0.3495,-0.3495,-0.3495,0,0,0,0,0,0,0,-0.3503,-0.3502,-0.3487,-0.3495,-0.3496,-0.35,-0.35,-0.349,-0.3495,-0.35,-0.3501,-0.3501,-0.3498,-0.3495,-0.3495,-0.3479,-0.3496,-0.3495,-0.3495,-0.3494,-0.3448,-0.3447,0,0,0,0,0,0,-0.3502,-0.3502,-0.3487,-0.3487,-0.3501,-0.3499,-0.3499,-0.3495,-0.3495,-0.3496,-0.35,-0.3502,-0.3497,-0.3496,-0.3495,-0.3473,-0.3495,-0.3494,-0.3494,-0.3449,-0.3448,-0.3447,0,0,0,0,0,0,-0.3503,-0.3501,-0.3487,-0.3495,-0.3493,-0.3498,-0.3493,-0.3494,-0.3492,-0.3495,-0.3496,-0.3497,-0.3497,-0.3496,-0.3483,-0.3473,-0.3494,-0.3493,-0.345,-0.3449,-0.3448,-0.3428,0,0,0,0,0,0,-0.3503,-0.3501,-0.3493,-0.3495,-0.3493,-0.3475,-0.3492,-0.3494,-0.349,-0.3492,-0.3492,-0.3493,-0.3498,-0.3484,-0.3482,-0.3472,-0.3493,-0.3451,-0.3449,-0.3448,-0.3429,-0.3426,-0.3423,0,0,0,0,0,-0.3504,-0.3487,-0.3493,-0.3491,-0.3484,-0.3475,-0.3474,-0.348,-0.3489,-0.3482,-0.3484,-0.3493,-0.3474,-0.3483,-0.3481,-0.347,-0.3451,-0.345,-0.3448,-0.3431,-0.3427,-0.3423,0,0,0,0,0,0,-0.3484,-0.3488,-0.3494,-0.3477,-0.3476,-0.3478,-0.3468,-0.3476,-0.3471,-0.3473,-0.3481,-0.3481,-0.3467,-0.3467,-0.3477,-0.3452,-0.3464,-0.3462,-0.3452,-0.3448,-0.3445,-0.3445,-0.3492,0,0,0,0,0,-0.3478,-0.3471,-0.3474,-0.3459,-0.3458,-0.3464,-0.346,-0.3465,-0.3464,-0.3463,-0.3464,-0.3463,-0.3457,-0.3453,-0.3447,-0.343,-0.343,-0.3421,-0.3418,-0.3416,-0.3414,-0.3405,-0.3402,-0.3442,-0.3442,-0.3442,0,0,-0.3465,-0.3466,-0.3461,-0.3455,-0.3455,-0.3447,-0.3463,-0.3454,-0.3448,-0.3462,-0.345,-0.3451,-0.345,-0.3435,-0.3428,-0.3435,-0.3403,-0.3414,-0.3412,-0.3411,-0.3403,-0.3399,-0.3396,-0.3441,-0.3441,-0.3441,0,0,-0.3437,-0.3437,-0.3425,-0.3425,-0.3424,-0.3428,-0.3425,-0.3426,-0.3428,-0.3416,-0.3426,-0.342,-0.341,-0.3409,-0.3407,-0.338,-0.3388,-0.3379,-0.3362,-0.3354,-0.3351,-0.3348,-0.3339,-0.3336,-0.3377,-0.3377,-0.3376,0,-0.3421,-0.341,-0.3418,-0.3409,-0.3406,-0.3419,-0.3407,-0.3406,-0.3404,-0.3402,-0.3409,-0.3397,-0.3397,-0.3382,-0.3376,-0.3374,-0.3371,-0.3378,-0.3351,-0.3348,-0.3346,-0.3337,-0.3334,-0.3375,-0.3375,-0.3376,-0.3376,0,-0.339,-0.3382,-0.3373,-0.3371,-0.3367,-0.3357,-0.3364,-0.3359,-0.3365,-0.3369,-0.3357,-0.3358,-0.3353,-0.3351,-0.3356,-0.3337,-0.3341,-0.335,-0.3362,-0.3341,-0.3333,-0.3329,-0.3374,-0.3374,-0.3374,-0.3375,0,0,-0.3348,-0.3352,-0.3348,-0.3348,-0.3349,-0.3343,-0.3334,-0.333,-0.3326,-0.3325,-0.3317,-0.3309,-0.3317,-0.3315,-0.3321,-0.3313,-0.3293,-0.3323,-0.3323,-0.3317,-0.3273,-0.3266,-0.3262,-0.3299,-0.3298,-0.3298,-0.3273,0,-0.3321,-0.3305,-0.3313,-0.3296,-0.329,-0.3302,-0.3294,-0.3294,-0.3297,-0.3292,-0.3296,-0.329,-0.3301,-0.33,-0.3294,-0.3297,-0.3284,-0.3299,-0.3292,-0.3291,-0.3291,-0.3258,-0.3251,-0.3228,-0.327,-0.3269,-0.3269,0,-0.3287,-0.3285,-0.3268,-0.3271,-0.3269,-0.3261,-0.3259,-0.3254,-0.3255,-0.3257,-0.3256,-0.3264,-0.3255,-0.3268,-0.3257,-0.3266,-0.3264,-0.3266,-0.3265,-0.3264,-0.3278,-0.3256,-0.322,-0.3217,-0.3264,-0.3265,-0.3265,0,-0.3259,-0.3252,-0.3241,-0.324,-0.3243,-0.3238,-0.3239,-0.3241,-0.3238,-0.3236,-0.3235,-0.3232,-0.323,-0.3228,-0.3235,-0.3244,-0.3222,-0.3236,-0.3224,-0.3224,-0.3219,-0.3219,-0.3182,-0.3218,-0.3218,-0.3218,-0.3218,0,-0.3228,-0.3217,-0.3228,-0.3221,-0.3209,-0.3219,-0.3207,-0.321,-0.3211,-0.3205,-0.3216,-0.321,-0.322,-0.3215,-0.3221,-0.3211,-0.321,-0.3212,-0.3213,-0.3211,-0.321,-0.3209,-0.3211,-0.3217,-0.3217,-0.3217,-0.3217,0,-0.3194,-0.3201,-0.319,-0.3195,-0.3196,-0.3187,-0.3191,-0.3185,-0.319,-0.3182,-0.3181,-0.3188,-0.3183,-0.319,-0.3186,-0.3189,-0.3176,-0.318,-0.3175,-0.3176,-0.3165,-0.3166,-0.3125,-0.312,-0.3159,-0.3159,-0.3159,0,-0.3173,-0.3165,-0.317,-0.3167,-0.3168,-0.3163,-0.3161,-0.317,-0.3167,-0.3168,-0.3162,-0.3158,-0.3156,-0.3148,-0.3152,-0.315,-0.3154,-0.314,-0.3153,-0.3151,-0.3153,-0.3154,-0.3153,-0.3136,-0.3136,-0.3136,-0.3135,0,-0.3136,-0.3141,-0.3137,-0.3136,-0.3133,-0.3132,-0.3131,-0.3128,-0.3138,-0.3135,-0.3131,-0.3129,-0.3125,-0.3121,-0.312,-0.3121,-0.313,-0.3131,-0.3128,-0.3125,-0.3123,-0.3124,-0.3168,-0.3132,-0.3132,-0.3132,-0.3133,-0.3133,-0.3109,-0.3102,-0.3105,-0.3101,-0.3102,-0.3102,-0.3097,-0.3101,-0.3098,-0.3096,-0.3102,-0.3096,-0.3098,-0.3097,-0.3098,-0.3093,-0.31,-0.3095,-0.3094,-0.3093,-0.3091,-0.3124,-0.3093,-0.3093,-0.3093,-0.3093,-0.3094,0,-0.3072,-0.3075,-0.3072,-0.3071,-0.3068,-0.3078,-0.3078,-0.3075,-0.307,-0.3071,-0.3069,-0.3064,-0.3061,-0.3066,-0.3064,-0.306,-0.3064,-0.3059,-0.3059,-0.3059,-0.3086,-0.3089,-0.3056,-0.3056,-0.3056,-0.3056,-0.3056,-0.3056,-0.3053,-0.3043,-0.3048,-0.3039,-0.3042,-0.3037,-0.3037,-0.3037,-0.3038,-0.3032,-0.303,-0.3033,-0.3036,-0.3035,-0.3032,-0.3034,-0.3032,-0.3026,-0.3029,-0.3054,-0.3057,-0.3061,-0.3063,-0.3026,-0.3026,-0.3003,-0.3003,-0.3002]},{"header":{"parameterUnit":"m.s-1","parameterCategory":1,"la1":30.2991,"la2":30.254,"lo1":-89.0895,"lo2":-89.0444,"dy":0.0017,"dx":0.0017,"nx":28,"ny":28,"refTime":"2024-05-06T03:00:00:Z","depth":0,"parameterNumber":3,"parameterNumberName":"V-component_of_WINDS"},"data":[0,0,0,0,0,0,0,0,0,0,0,0,0,0,0,0,0,0,0,0,0,0,0,0,0,0,0,0,0,0,0,0,0,0,0,0,0,0,0,0,0,0,0,0,0,0,0,0,0,0,0,0,0,0,0,0,0,0,5.8774,5.8775,0,5.8898,5.89,5.8901,5.8903,5.8902,5.89,5.8899,5.9017,5.9022,5.9026,0,0,0,0,0,0,0,0,0,0,0,0,0,5.8532,5.8537,5.8774,5.8776,5.8777,5.8898,5.89,5.8901,5.8904,5.8902,5.89,5.8898,5.9016,5.9021,5.9027,0,0,0,0,0,0,0,0,0,0,0,0,0,5.8645,5.8538,5.8774,5.8793,5.8796,5.8898,5.89,5.8902,5.8904,5.8902,5.8899,5.8897,5.9014,5.9021,5.9028,5.9116,0,0,5.9049,5.9052,0,0,0,0,0,0,0,0,5.8638,5.8654,5.8789,5.8792,5.8795,5.8883,5.8858,5.8973,5.8905,5.8863,5.8899,5.8896,5.8974,5.8984,5.9012,5.9121,5.9126,5.9049,5.9053,5.9056,5.9058,0,0,0,0,0,0,0,5.8631,5.8648,5.8823,5.8791,5.8795,5.8793,5.8807,5.888,5.8929,5.8866,5.8867,5.8882,5.8975,5.9005,5.9015,5.9128,5.9049,5.9055,5.9059,5.9062,5.9318,5.9321,0,0,0,0,0,0,5.862,5.8642,5.8819,5.8827,5.871,5.88,5.8815,5.8857,5.8929,5.8938,5.8884,5.8881,5.8995,5.9007,5.9019,5.9129,5.9056,5.9063,5.9067,5.9316,5.9319,5.9322,0,0,0,0,0,0,5.8615,5.8636,5.8814,5.8735,5.8757,5.8806,5.8854,5.8861,5.8891,5.8942,5.895,5.8906,5.8993,5.9009,5.9093,5.9133,5.9066,5.9072,5.9313,5.9317,5.9321,5.9349,0,0,0,0,0,0,5.8608,5.8634,5.8669,5.8735,5.8761,5.8888,5.8856,5.8865,5.8904,5.8902,5.8965,5.8973,5.8993,5.9083,5.91,5.9142,5.9077,5.9309,5.9314,5.9319,5.9345,5.9354,5.9361,0,0,0,0,0,5.8599,5.867,5.8671,5.8692,5.8807,5.889,5.8905,5.8929,5.8907,5.8942,5.8976,5.8971,5.9126,5.9091,5.911,5.9155,5.9307,5.9313,5.9319,5.9341,5.9352,5.9361,0,0,0,0,0,0,5.8603,5.8679,5.8681,5.8775,5.8827,5.889,5.8936,5.8939,5.8995,5.8991,5.9015,5.903,5.9113,5.9142,5.9102,5.9245,5.9214,5.9224,5.9224,5.9235,5.9243,5.9234,5.9083,0,0,0,0,0,5.8616,5.868,5.8741,5.8818,5.8844,5.8886,5.8922,5.8937,5.899,5.9011,5.905,5.9099,5.916,5.9198,5.9256,5.9349,5.9363,5.9389,5.9397,5.9404,5.9412,5.9466,5.9478,5.9342,5.9342,5.9342,0,0,5.8641,5.869,5.8728,5.882,5.8862,5.8926,5.8904,5.8971,5.9019,5.902,5.9103,5.9133,5.919,5.928,5.9321,5.9306,5.9453,5.9411,5.9416,5.9421,5.9473,5.9486,5.9497,5.9346,5.9345,5.9345,0,0,5.872,5.8764,5.8835,5.8878,5.8943,5.897,5.8987,5.9051,5.9073,5.9157,5.916,5.9215,5.9318,5.9359,5.9394,5.9492,5.9491,5.951,5.9553,5.9605,5.9615,5.9625,5.9662,5.9675,5.9518,5.9518,5.9518,0,5.8743,5.8842,5.8869,5.894,5.898,5.8988,5.906,5.9099,5.9178,5.9205,5.9188,5.932,5.9358,5.9458,5.9483,5.951,5.953,5.9503,5.9612,5.9622,5.9631,5.9667,5.968,5.952,5.952,5.952,5.952,0,5.8868,5.8936,5.8985,5.9067,5.9112,5.9182,5.9219,5.9262,5.9273,5.9302,5.9388,5.9435,5.9504,5.9528,5.9537,5.9631,5.962,5.9607,5.9576,5.9646,5.968,5.9694,5.9523,5.9523,5.9522,5.9521,0,0,5.8952,5.905,5.9068,5.9106,5.9179,5.9232,5.9302,5.9373,5.941,5.9464,5.9524,5.9612,5.9602,5.9641,5.9655,5.97,5.9778,5.9682,5.9684,5.97,5.9885,5.9896,5.9911,5.9777,5.978,5.9782,5.9881,0,5.9041,5.9171,5.9198,5.9309,5.9373,5.9383,5.9444,5.9495,5.9524,5.9581,5.9612,5.9675,5.9656,5.968,5.9725,5.9759,5.9815,5.9752,5.9832,5.9835,5.982,5.9928,5.9939,6.0031,5.9894,5.9896,5.9898,0,5.9162,5.9225,5.9343,5.9411,5.9439,5.9494,5.9562,5.9617,5.9675,5.9693,5.9738,5.9748,5.9821,5.9786,5.9886,5.9842,5.9876,5.9898,5.9902,5.9911,5.9872,5.9942,6.006,6.0074,5.9919,5.9917,5.9916,0,5.9215,5.9327,5.9414,5.9446,5.9526,5.9565,5.96,5.9655,5.9697,5.9756,5.9783,5.9848,5.9884,5.9933,5.9961,5.9932,6.0059,6.0026,6.0076,6.0075,6.0103,6.0101,6.023,6.0122,6.0122,6.0122,6.0121,0,5.9313,5.9385,5.944,5.9493,5.9574,5.9605,5.9683,5.9717,5.9767,5.9826,5.9836,5.989,5.9922,5.9981,6.0002,6.0083,6.0098,6.0114,6.0119,6.0115,6.0113,6.0138,6.0133,6.0125,6.0125,6.0124,6.0123,0,5.9386,5.9425,5.952,5.959,5.9609,5.9666,5.9725,5.9776,5.9806,5.9881,5.99,5.9946,6.0016,6.0048,6.0132,6.0147,6.0239,6.0239,6.0221,6.0224,6.0273,6.0268,6.0423,6.0446,6.0322,6.0323,6.0324,0,5.9446,5.9503,5.958,5.9623,5.966,5.9726,5.9771,5.9802,5.9847,5.9919,5.9961,6.0033,6.0091,6.0202,6.0242,6.0307,6.0309,6.0359,6.0319,6.0313,6.0312,6.031,6.0316,6.0367,6.0368,6.0369,6.037,0,5.955,5.9568,5.9633,5.9706,5.9759,5.9817,5.9873,5.9906,5.9946,5.9996,6.007,6.0116,6.0205,6.0276,6.0344,6.0377,6.0381,6.0382,6.0398,6.0394,6.0383,6.0392,6.0243,6.0379,6.0378,6.0377,6.0377,6.0376,5.9621,5.9673,5.9737,5.9809,5.9856,5.9909,5.9962,6.0,6.0064,6.0141,6.0155,6.0234,6.0291,6.0384,6.042,6.0481,6.0469,6.049,6.0496,6.0502,6.0506,6.0372,6.0493,6.0493,6.0492,6.0492,6.0492,0,5.9727,5.977,5.9836,5.9918,5.9975,5.9976,6.0039,6.0086,6.0156,6.021,6.027,6.0355,6.0424,6.047,6.054,6.058,6.0583,6.0597,6.0595,6.0603,6.0511,6.0492,6.0593,6.0593,6.0593,6.0593,6.0593,6.0593,5.979,5.9879,5.9905,6.0017,6.0058,6.0139,6.0175,6.0224,6.0268,6.0364,6.0423,6.0454,6.0505,6.0579,6.0642,6.0654,6.0679,6.0694,6.0706,6.0619,6.0609,6.0599,6.0581,6.0699,6.0699,6.0792,6.0793,6.0794]}]]